Tillbaka till svenska Fidonet
English   Information   Debug  
FILM   0/18
FNEWS_PUBLISH   5034
FN_SYSOP   42247
FN_SYSOP_OLD1   71952
FTP_FIDO   0/2
FTSC_PUBLIC   0/13979
FUNNY   0/4886
GENEALOGY.EUR   0/71
GET_INFO   105
GOLDED   0/408
HAM   2902/16786
HOLYSMOKE   0/6791
HOT_SITES   0/1
HTMLEDIT   0/71
HUB203   466
HUB_100   264
HUB_400   39
HUMOR   0/29
IC   26/2851
INTERNET   0/424
INTERUSER   0/3
IP_CONNECT   719
JAMNNTPD   0/233
JAMTLAND   0/47
KATTY_KORNER   0/41
LAN   0/16
LINUX-USER   0/19
LINUXHELP   1080/1155
LINUX   0/22427
LINUX_BBS   0/957
mail   18.68
mail_fore_ok   249
MENSA   0/341
MODERATOR   0/102
MONTE   0/992
MOSCOW_OKLAHOMA   0/1245
MUFFIN   0/783
MUSIC   0/321
N203_STAT   938
N203_SYSCHAT   313
NET203   321
NET204   69
NET_DEV   0/10
NORD.ADMIN   0/101
NORD.CHAT   0/2572
NORD.FIDONET   189
NORD.HARDWARE   0/28
NORD.KULTUR   0/114
NORD.PROG   0/32
NORD.SOFTWARE   0/88
NORD.TEKNIK   0/58
NORD   0/453
OCCULT_CHAT   0/93
OS2BBS   0/787
OS2DOSBBS   0/580
OS2HW   0/42
OS2INET   0/37
OS2LAN   0/134
OS2PROG   0/36
OS2REXX   0/113
OS2USER-L   207
OS2   0/4835
OSDEBATE   0/18996
PASCAL   0/490
PERL   0/457
PHP   0/45
POINTS   0/405
POLITICS   24777/29554
POL_INC   0/14731
PSION   103
R20_ADMIN   1133
R20_AMATORRADIO   0/2
R20_BEST_OF_FIDONET   16
R20_CHAT   0/897
R20_DEPP   0/3
R20_DEV   400
R20_ECHO2   1933
R20_ECHOPRES   0/35
R20_ESTAT   0/719
R20_FIDONETPROG...
...RAM.MYPOINT
  0/2
R20_FIDONETPROGRAM   0/22
R20_FIDONET   0/248
R20_FILEFIND   0/24
R20_FILEFOUND   0/22
R20_HIFI   0/3
R20_INFO2   3827
R20_INTERNET   0/12940
R20_INTRESSE   0/60
R20_INTR_KOM   0/99
R20_KANDIDAT.CHAT   42
R20_KANDIDAT   28
R20_KOM_DEV   112
R20_KONTROLL   0/13360
R20_KORSET   0/18
R20_LOKALTRAFIK   0/24
R20_MODERATOR   0/1852
R20_NC   76
R20_NET200   245
R20_NETWORK.OTH...
...ERNETS
  0/13
R20_OPERATIVSYS...
...TEM.LINUX
  0/44
R20_PROGRAMVAROR   0/1
R20_REC2NEC   534
R20_SFOSM   0/341
R20_SF   0/108
R20_SPRAK.ENGLISH   0/1
R20_SQUISH   107
R20_TEST   2
R20_WORST_OF_FIDONET   20
RAR   0/9
RA_MULTI   106
RA_UTIL   0/162
REGCON.EUR   0/2072
REGCON   0/13
SCIENCE   0/1206
SF   0/239
SHAREWARE_SUPPORT   0/5146
SHAREWRE   0/14
SIMPSONS   0/169
STATS_OLD1   0/2539.065
STATS_OLD2   0/2530
STATS_OLD3   0/2395.095
STATS_OLD4   0/1692.25
SURVIVOR   0/495
SYSOPS_CORNER   0/3
SYSOP   0/84
TAGLINES   0/112
TEAMOS2   0/4530
TECH   0/2617
TEST.444   0/105
TRAPDOOR   0/19
TREK   0/755
TUB   0/290
UFO   0/40
UNIX   0/1316
USA_EURLINK   0/102
USR_MODEMS   0/1
VATICAN   0/2740
VIETNAM_VETS   0/14
VIRUS   0/378
VIRUS_INFO   0/201
VISUAL_BASIC   0/473
WHITEHOUSE   0/5187
WIN2000   0/101
WIN32   0/30
WIN95   0/4291
WIN95_OLD1   0/70272
WINDOWS   0/1517
WWB_SYSOP   0/419
WWB_TECH   0/810
ZCC-PUBLIC   0/1
ZEC   4

 
4DOS   0/134
ABORTION   0/7
ALASKA_CHAT   0/506
ALLFIX_FILE   0/1313
ALLFIX_FILE_OLD1   0/7997
ALT_DOS   0/152
AMATEUR_RADIO   0/1039
AMIGASALE   0/14
AMIGA   0/331
AMIGA_INT   0/1
AMIGA_PROG   0/20
AMIGA_SYSOP   0/26
ANIME   0/15
ARGUS   0/924
ASCII_ART   0/340
ASIAN_LINK   0/651
ASTRONOMY   0/417
AUDIO   0/92
AUTOMOBILE_RACING   0/105
BABYLON5   0/17862
BAG   135
BATPOWER   0/361
BBBS.ENGLISH   0/382
BBSLAW   0/109
BBS_ADS   0/5290
BBS_INTERNET   0/507
BIBLE   253/3563
BINKD   0/1119
BINKLEY   0/215
BLUEWAVE   0/2173
CABLE_MODEMS   0/25
CBM   0/46
CDRECORD   0/66
CDROM   0/20
CLASSIC_COMPUTER   0/378
COMICS   0/15
CONSPRCY   0/899
COOKING   42383
COOKING_OLD1   0/24719
COOKING_OLD2   25058/40862
COOKING_OLD3   0/37489
COOKING_OLD4   10994/35496
COOKING_OLD5   9370
C_ECHO   0/189
C_PLUSPLUS   0/31
DIRTY_DOZEN   0/201
DOORGAMES   1582/2388
DOS_INTERNET   0/196
duplikat   6102
ECHOLIST   12391/18295
EC_SUPPORT   201/318
ELECTRONICS   0/359
ELEKTRONIK.GER   1534
ENET.LINGUISTIC   0/13
ENET.POLITICS   0/4
ENET.SOFT   0/11701
ENET.SYSOP   34409
ENET.TALKS   0/32
ENGLISH_TUTOR   0/2000
EVOLUTION   0/1335
FDECHO   0/217
FDN_ANNOUNCE   4540/7068
FIDONEWS   25225
FIDONEWS_OLD1   0/49742
FIDONEWS_OLD2   0/35949
FIDONEWS_OLD3   0/30874
FIDONEWS_OLD4   0/37224
FIDO_SYSOP   12977
FIDO_UTIL   0/180
FILEFIND   0/209
FILEGATE   0/212
Möte HAM, 16786 texter
 lista första sista föregående nästa
Text 3100, 787 rader
Skriven 2009-07-23 19:30:20 av Amsat List (1:323/120.0)
Ärende: [keps]  orb09204.amsa
=============================
[keps]  orb09204.amsa

Return-Path: <keps-bounces@amsat.org>
X-Rcpt: craig.healy@chowda.com
X-UIDL: 1248391387.18606

SB KEPS @ AMSAT  $ORB09204.O
Orbital Elements  09204.OSCAR

HR AMSAT ORBITAL ELEMENTS FOR OSCAR SATELLITES
FROM WA5QGD FORT WORTH,TX July 23, 2009
Send Subscribe/unsubscribe to KEPS at 
http://www.amsat.org/mailman/listinfo/keps
BID: ORB09204.O
TO ALL RADIO AMATEURS BT

Satellite: AO-07
Catalog number: 07530
Epoch time:      09204.56027600
Element set:     536
Inclination:      101.4243 deg
RA of node:       227.8992 deg
Eccentricity:    0.0011645
Arg of perigee:   196.9255 deg
Mean anomaly:     163.1433 deg
Mean motion:   12.53575954 rev/day
Decay rate:       -2.7e-07 rev/day^2
Epoch rev:           58727
Checksum:              302

Satellite: FO-29
Catalog number: 24278
Epoch time:      09203.64704197
Element set:    0092
Inclination:      098.5487 deg
RA of node:       072.9103 deg
Eccentricity:    0.0349742
Arg of perigee:   258.4962 deg
Mean anomaly:     097.6716 deg
Mean motion:   13.52944217 rev/day
Decay rate:        2.0e-08 rev/day^2
Epoch rev:           63854
Checksum:              339

Satellite: SO-33
Catalog number: 25509
Epoch time:      09203.42259103
Element set:     503
Inclination:      031.4343 deg
RA of node:       213.2517 deg
Eccentricity:    0.0354772
Arg of perigee:   286.5546 deg
Mean anomaly:     069.6413 deg
Mean motion:   14.28257545 rev/day
Decay rate:       -7.2e-07 rev/day^2
Epoch rev:           56087
Checksum:              297

Satellite: RS-22
Catalog number: 27939
Epoch time:      09203.68695170
Element set:    0848
Inclination:      097.9388 deg
RA of node:       077.2565 deg
Eccentricity:    0.0014222
Arg of perigee:   024.7177 deg
Mean anomaly:     335.4713 deg
Mean motion:   14.63329979 rev/day
Decay rate:        3.5e-07 rev/day^2
Epoch rev:           31076
Checksum:              340

Satellite: VO-52
Catalog number: 28650
Epoch time:      09203.91098911
Element set:    0279
Inclination:      097.7418 deg
RA of node:       264.3086 deg
Eccentricity:    0.0025900
Arg of perigee:   272.8036 deg
Mean anomaly:     087.0208 deg
Mean motion:   14.81602187 rev/day
Decay rate:      -1.88e-06 rev/day^2
Epoch rev:           22793
Checksum:              321

/EX
SB KEPS @ AMSAT  $ORB09204.D
Orbital Elements  09204.MICROS

HR AMSAT ORBITAL ELEMENTS FOR THE MICROSATS
FROM WA5QGD FORT WORTH,TX July 23, 2009
Send Subscribe/unsubscribe to KEPS at 
http://www.amsat.org/mailman/listinfo/keps
BID: ORB09204.D
TO ALL RADIO AMATEURS BT

Satellite: AO-16
Catalog number: 20439
Epoch time:      09203.91330159
Element set:    0658
Inclination:      098.2810 deg
RA of node:       170.6938 deg
Eccentricity:    0.0011967
Arg of perigee:   066.2603 deg
Mean anomaly:     293.9833 deg
Mean motion:   14.31829060 rev/day
Decay rate:        6.0e-08 rev/day^2
Epoch rev:           01826
Checksum:              304

Satellite: LO-19
Catalog number: 20442
Epoch time:      09203.68495298
Element set:    0574
Inclination:      098.2433 deg
RA of node:       177.6011 deg
Eccentricity:    0.0012795
Arg of perigee:   064.4375 deg
Mean anomaly:     295.8124 deg
Mean motion:   14.32063754 rev/day
Decay rate:       -6.7e-07 rev/day^2
Epoch rev:           01839
Checksum:              320

Satellite: AO-27
Catalog number: 22825
Epoch time:      09203.84867716
Element set:    0298
Inclination:      098.4371 deg
RA of node:       156.1529 deg
Eccentricity:    0.0008721
Arg of perigee:   153.5701 deg
Mean anomaly:     206.5926 deg
Mean motion:   14.29269033 rev/day
Decay rate:      -1.45e-06 rev/day^2
Epoch rev:           82500
Checksum:              314

Satellite: IO-26
Catalog number: 22826
Epoch time:      09203.83260139
Element set:    0025
Inclination:      098.4316 deg
RA of node:       156.8697 deg
Eccentricity:    0.0009234
Arg of perigee:   149.5720 deg
Mean anomaly:     210.6004 deg
Mean motion:   14.29521811 rev/day
Decay rate:       -1.1e-07 rev/day^2
Epoch rev:           82510
Checksum:              277

Satellite: GO-32
Catalog number: 25397
Epoch time:      09203.71790884
Element set:    0949
Inclination:      098.3253 deg
RA of node:       224.1537 deg
Eccentricity:    0.0002016
Arg of perigee:   124.8900 deg
Mean anomaly:     235.2458 deg
Mean motion:   14.23161618 rev/day
Decay rate:        4.5e-07 rev/day^2
Epoch rev:           57318
Checksum:              304

Satellite: NO-44
Catalog number: 26931
Epoch time:      09203.82531276
Element set:    0224
Inclination:      067.0534 deg
RA of node:       332.5288 deg
Eccentricity:    0.0006091
Arg of perigee:   278.2923 deg
Mean anomaly:     081.7504 deg
Mean motion:   14.29560759 rev/day
Decay rate:      -2.62e-06 rev/day^2
Epoch rev:           40767
Checksum:              308

Satellite: SO-50
Catalog number: 27607
Epoch time:      09203.66519546
Element set:    0943
Inclination:      064.5597 deg
RA of node:       277.3383 deg
Eccentricity:    0.0063603
Arg of perigee:   197.1444 deg
Mean anomaly:     162.7522 deg
Mean motion:   14.71448773 rev/day
Decay rate:        7.4e-07 rev/day^2
Epoch rev:           35389
Checksum:              337

Satellite: CO-55
Catalog number: 27844
Epoch time:      09203.55946459
Element set:     627
Inclination:      098.7121 deg
RA of node:       212.2231 deg
Eccentricity:    0.0010801
Arg of perigee:   044.6314 deg
Mean anomaly:     315.5742 deg
Mean motion:   14.20647322 rev/day
Decay rate:        1.1e-07 rev/day^2
Epoch rev:           31428
Checksum:              273

